owner,sensor,date,latitude,longitude,vertical_datum,mass_concentration_of_oxygen_in_sea_water,qcFlag 
SCCF RECON,ioos:station:SCCF:12:1,2009-09-01T00:00:00Z,26.4966,-82.1479,1.99,5.43,1111122 
SCCF RECON,ioos:station:SCCF:12:1,2009-09-01T01:00:00Z,26.4966,-82.1479,2.13,6.73,1111122 
SCCF RECON,ioos:station:SCCF:12:1,2009-09-01T02:00:00Z,26.4966,-82.1479,2.26,6.56,1111122 
SCCF RECON,ioos:station:SCCF:12:1,2009-09-01T03:00:00Z,26.4966,-82.1479,2.364,6.33,1111122 
SCCF RECON,ioos:station:SCCF:12:1,2009-09-01T04:00:00Z,26.4966,-82.1479,2.42,6.34,1111122 
SCCF RECON,ioos:station:SCCF:12:1,2009-09-01T05:00:00Z,26.4966,-82.1479,2.404,6.68,1111122 
SCCF RECON,ioos:station:SCCF:12:1,2009-09-01T06:00:00Z,26.4966,-82.1479,2.37,6.67,1111122 
SCCF RECON,ioos:station:SCCF:12:1,2009-09-01T07:00:00Z,26.4966,-82.1479,2.347,6.37,1111122 
SCCF RECON,ioos:station:SCCF:12:1,2009-09-01T08:00:00Z,26.4966,-82.1479,2.31,6.12,1111122 
SCCF RECON,ioos:station:SCCF:12:1,2009-09-01T09:00:00Z,26.4966,-82.1479,2.27,5.65,1111122 
SCCF RECON,ioos:station:SCCF:12:1,2009-09-01T10:00:00Z,26.4966,-82.1479,2.27,5.69,1111122 
SCCF RECON,ioos:station:SCCF:12:1,2009-09-01T11:00:00Z,26.4966,-82.1479,2.32,5.63,1111122 
SCCF RECON,ioos:station:SCCF:12:1,2009-09-01T12:00:00Z,26.4966,-82.1479,2.39,5.27,1111122 
SCCF RECON,ioos:station:SCCF:12:1,2009-09-01T13:00:00Z,26.4966,-82.1479,2.48,5.06,1111122 
SCCF RECON,ioos:station:SCCF:12:1,2009-09-01T14:00:00Z,26.4966,-82.1479,2.57,5.34,1111122 
SCCF RECON,ioos:station:SCCF:12:1,2009-09-01T15:00:00Z,26.4966,-82.1479,2.63,5.36,1111122 
SCCF RECON,ioos:station:SCCF:12:1,2009-09-01T16:00:00Z,26.4966,-82.1479,2.64,5.0,1111122 
SCCF RECON,ioos:station:SCCF:12:1,2009-09-01T17:00:00Z,26.4966,-82.1479,2.591,5.91,1111122 
SCCF RECON,ioos:station:SCCF:12:1,2009-09-01T18:00:00Z,26.4966,-82.1479,2.5,6.27,1111122 
SCCF RECON,ioos:station:SCCF:12:1,2009-09-01T19:00:00Z,26.4966,-82.1479,2.377,7.12,1111122 
SCCF RECON,ioos:station:SCCF:12:1,2009-09-01T20:00:00Z,26.4966,-82.1479,2.237,7.39,1111122 
SCCF RECON,ioos:station:SCCF:12:1,2009-09-01T21:00:00Z,26.4966,-82.1479,2.119,7.1,1111122 
SCCF RECON,ioos:station:SCCF:12:1,2009-09-01T22:00:00Z,26.4966,-82.1479,2.029,7.56,1111122 
SCCF RECON,ioos:station:SCCF:12:1,2009-09-01T23:00:00Z,26.4966,-82.1479,1.972,7.07,1111122 
SCCF RECON,ioos:station:SCCF:12:1,2009-09-02T00:00:00Z,26.4966,-82.1479,1.97,5.3,1111122 
SCCF RECON,ioos:station:SCCF:12:1,2009-09-02T01:00:00Z,26.4966,-82.1479,2.089,6.18,1111122 
SCCF RECON,ioos:station:SCCF:12:1,2009-09-02T02:00:00Z,26.4966,-82.1479,2.22,6.05,1111122 
SCCF RECON,ioos:station:SCCF:12:1,2009-09-02T03:00:00Z,26.4966,-82.1479,2.331,5.66,1111122 
SCCF RECON,ioos:station:SCCF:12:1,2009-09-02T04:00:00Z,26.4966,-82.1479,2.43,5.28,1111122 
SCCF RECON,ioos:station:SCCF:12:1,2009-09-02T05:00:00Z,26.4966,-82.1479,2.49,5.64,1111122 
SCCF RECON,ioos:station:SCCF:12:1,2009-09-02T06:00:00Z,26.4966,-82.1479,2.481,5.92,1111122 
SCCF RECON,ioos:station:SCCF:12:1,2009-09-02T07:00:00Z,26.4966,-82.1479,2.41,5.7,1111122 
SCCF RECON,ioos:station:SCCF:12:1,2009-09-02T08:00:00Z,26.4966,-82.1479,2.34,5.41,1111122 
SCCF RECON,ioos:station:SCCF:12:1,2009-09-02T09:00:00Z,26.4966,-82.1479,2.299,5.11,1111122 
SCCF RECON,ioos:station:SCCF:12:1,2009-09-02T10:00:00Z,26.4966,-82.1479,2.27,5.08,1111122 
SCCF RECON,ioos:station:SCCF:12:1,2009-09-02T11:00:00Z,26.4966,-82.1479,2.29,5.13,1111122 
SCCF RECON,ioos:station:SCCF:12:1,2009-09-02T12:00:00Z,26.4966,-82.1479,2.36,4.72,1111122 
SCCF RECON,ioos:station:SCCF:12:1,2009-09-02T13:00:00Z,26.4966,-82.1479,2.45,4.64,1111122 
SCCF RECON,ioos:station:SCCF:12:1,2009-09-02T14:00:00Z,26.4966,-82.1479,2.543,4.88,1111122 
SCCF RECON,ioos:station:SCCF:12:1,2009-09-02T15:00:00Z,26.4966,-82.1479,2.62,5.02,1111122 
SCCF RECON,ioos:station:SCCF:12:1,2009-09-02T16:00:00Z,26.4966,-82.1479,2.66,4.5,1111122 
SCCF RECON,ioos:station:SCCF:12:1,2009-09-02T17:00:00Z,26.4966,-82.1479,2.64,5.29,1111122 
SCCF RECON,ioos:station:SCCF:12:1,2009-09-02T18:00:00Z,26.4966,-82.1479,2.57,5.53,1111122 
SCCF RECON,ioos:station:SCCF:12:1,2009-09-02T19:00:00Z,26.4966,-82.1479,2.46,5.47,1111122 
SCCF RECON,ioos:station:SCCF:12:1,2009-09-02T20:00:00Z,26.4966,-82.1479,2.319,6.13,1111122 
SCCF RECON,ioos:station:SCCF:12:1,2009-09-02T21:00:00Z,26.4966,-82.1479,2.18,6.27,1111122 
SCCF RECON,ioos:station:SCCF:12:1,2009-09-02T22:00:00Z,26.4966,-82.1479,2.07,6.83,1111122 
SCCF RECON,ioos:station:SCCF:12:1,2009-09-02T23:00:00Z,26.4966,-82.1479,1.99,6.34,1111122 
SCCF RECON,ioos:station:SCCF:12:1,2009-09-03T00:00:00Z,26.4966,-82.1479,1.97,5.22,1111122 
SCCF RECON,ioos:station:SCCF:12:1,2009-09-03T01:00:00Z,26.4966,-82.1479,2.074,5.18,1111122 
SCCF RECON,ioos:station:SCCF:12:1,2009-09-03T02:00:00Z,26.4966,-82.1479,2.24,5.13,1111122 
SCCF RECON,ioos:station:SCCF:12:1,2009-09-03T03:00:00Z,26.4966,-82.1479,2.37,5.06,1111122 
SCCF RECON,ioos:station:SCCF:12:1,2009-09-03T04:00:00Z,26.4966,-82.1479,2.449,5.07,1111122 
SCCF RECON,ioos:station:SCCF:12:1,2009-09-03T05:00:00Z,26.4966,-82.1479,2.49,5.18,1111122 
SCCF RECON,ioos:station:SCCF:12:1,2009-09-03T06:00:00Z,26.4966,-82.1479,2.5,5.07,1111122 
SCCF RECON,ioos:station:SCCF:12:1,2009-09-03T07:00:00Z,26.4966,-82.1479,2.46,5.24,1111122 
SCCF RECON,ioos:station:SCCF:12:1,2009-09-03T08:00:00Z,26.4966,-82.1479,2.389,5.03,1111122 
SCCF RECON,ioos:station:SCCF:12:1,2009-09-03T09:00:00Z,26.4966,-82.1479,2.32,4.77,1111122 
SCCF RECON,ioos:station:SCCF:12:1,2009-09-03T10:00:00Z,26.4966,-82.1479,2.26,4.48,1111122 
SCCF RECON,ioos:station:SCCF:12:1,2009-09-03T11:00:00Z,26.4966,-82.1479,2.21,4.26,1111122 
SCCF RECON,ioos:station:SCCF:12:1,2009-09-03T12:00:00Z,26.4966,-82.1479,2.238,4.55,1111122 
SCCF RECON,ioos:station:SCCF:12:1,2009-09-03T13:00:00Z,26.4966,-82.1479,2.31,3.71,1111122 
SCCF RECON,ioos:station:SCCF:12:1,2009-09-03T14:00:00Z,26.4966,-82.1479,2.45,4.07,1111122 
SCCF RECON,ioos:station:SCCF:12:1,2009-09-03T15:00:00Z,26.4966,-82.1479,2.591,4.1,1111122 
SCCF RECON,ioos:station:SCCF:12:1,2009-09-03T16:00:00Z,26.4966,-82.1479,2.718,3.96,1111122 
SCCF RECON,ioos:station:SCCF:12:1,2009-09-03T17:00:00Z,26.4966,-82.1479,2.74,4.72,1111122 
SCCF RECON,ioos:station:SCCF:12:1,2009-09-03T18:00:00Z,26.4966,-82.1479,2.631,4.9,1111122 
SCCF RECON,ioos:station:SCCF:12:1,2009-09-03T19:00:00Z,26.4966,-82.1479,2.507,4.83,1111122 
SCCF RECON,ioos:station:SCCF:12:1,2009-09-03T20:00:00Z,26.4966,-82.1479,2.372,5.14,1111122 
SCCF RECON,ioos:station:SCCF:12:1,2009-09-03T21:00:00Z,26.4966,-82.1479,2.247,5.05,1111122 
SCCF RECON,ioos:station:SCCF:12:1,2009-09-03T22:00:00Z,26.4966,-82.1479,2.14,5.2,1111122 
SCCF RECON,ioos:station:SCCF:12:1,2009-09-03T23:00:00Z,26.4966,-82.1479,2.05,5.34,1111122 
SCCF RECON,ioos:station:SCCF:12:1,2009-09-04T00:00:00Z,26.4966,-82.1479,1.991,4.04,1111122 
SCCF RECON,ioos:station:SCCF:12:1,2009-09-04T01:00:00Z,26.4966,-82.1479,2.021,4.23,1111122 
SCCF RECON,ioos:station:SCCF:12:1,2009-09-04T02:00:00Z,26.4966,-82.1479,2.17,4.69,1111122 
SCCF RECON,ioos:station:SCCF:12:1,2009-09-04T03:00:00Z,26.4966,-82.1479,2.32,4.24,1111122 
SCCF RECON,ioos:station:SCCF:12:1,2009-09-04T04:00:00Z,26.4966,-82.1479,2.427,4.32,1111122 
SCCF RECON,ioos:station:SCCF:12:1,2009-09-04T05:00:00Z,26.4966,-82.1479,2.5,4.55,1111122 
SCCF RECON,ioos:station:SCCF:12:1,2009-09-04T06:00:00Z,26.4966,-82.1479,2.54,4.63,1111122 
SCCF RECON,ioos:station:SCCF:12:1,2009-09-04T07:00:00Z,26.4966,-82.1479,2.52,4.62,1111122 
SCCF RECON,ioos:station:SCCF:12:1,2009-09-04T08:00:00Z,26.4966,-82.1479,2.44,3.77,1111122 
SCCF RECON,ioos:station:SCCF:12:1,2009-09-04T09:00:00Z,26.4966,-82.1479,2.331,3.74,1111122 
SCCF RECON,ioos:station:SCCF:12:1,2009-09-04T10:00:00Z,26.4966,-82.1479,2.244,4.15,1111122 
SCCF RECON,ioos:station:SCCF:12:1,2009-09-04T11:00:00Z,26.4966,-82.1479,2.18,3.67,1111122 
SCCF RECON,ioos:station:SCCF:12:1,2009-09-04T12:00:00Z,26.4966,-82.1479,2.168,4.15,1111122 
SCCF RECON,ioos:station:SCCF:12:1,2009-09-04T13:00:00Z,26.4966,-82.1479,2.237,4.26,1111122 
SCCF RECON,ioos:station:SCCF:12:1,2009-09-04T14:00:00Z,26.4966,-82.1479,2.37,4.18,1111122 
SCCF RECON,ioos:station:SCCF:12:1,2009-09-04T15:00:00Z,26.4966,-82.1479,2.53,3.7,1111122 
SCCF RECON,ioos:station:SCCF:12:1,2009-09-04T16:00:00Z,26.4966,-82.1479,2.627,3.48,1111122 
SCCF RECON,ioos:station:SCCF:12:1,2009-09-04T17:00:00Z,26.4966,-82.1479,2.671,3.53,1111122 
SCCF RECON,ioos:station:SCCF:12:1,2009-09-04T18:00:00Z,26.4966,-82.1479,2.675,4.13,1111122 
SCCF RECON,ioos:station:SCCF:12:1,2009-09-04T19:00:00Z,26.4966,-82.1479,2.61,4.92,1111122 
SCCF RECON,ioos:station:SCCF:12:1,2009-09-04T20:00:00Z,26.4966,-82.1479,2.51,4.43,1111122 
SCCF RECON,ioos:station:SCCF:12:1,2009-09-04T21:00:00Z,26.4966,-82.1479,2.379,3.93,1111122 
SCCF RECON,ioos:station:SCCF:12:1,2009-09-04T22:00:00Z,26.4966,-82.1479,2.25,3.88,1111122 
SCCF RECON,ioos:station:SCCF:12:1,2009-09-04T23:00:00Z,26.4966,-82.1479,2.15,3.98,1111122 
SCCF RECON,ioos:station:SCCF:12:1,2009-09-05T00:00:00Z,26.4966,-82.1479,2.078,3.75,1111122 
SCCF RECON,ioos:station:SCCF:12:1,2009-09-05T01:00:00Z,26.4966,-82.1479,2.04,4.81,1111122 
SCCF RECON,ioos:station:SCCF:12:1,2009-09-05T02:00:00Z,26.4966,-82.1479,2.159,4.79,1111122 
SCCF RECON,ioos:station:SCCF:12:1,2009-09-05T03:00:00Z,26.4966,-82.1479,2.31,4.05,1111122 
SCCF RECON,ioos:station:SCCF:12:1,2009-09-05T04:00:00Z,26.4966,-82.1479,2.43,5.05,1111122 
SCCF RECON,ioos:station:SCCF:12:1,2009-09-05T05:00:00Z,26.4966,-82.1479,2.53,5.53,1111122 
SCCF RECON,ioos:station:SCCF:12:1,2009-09-05T06:00:00Z,26.4966,-82.1479,2.58,4.45,1111122 
SCCF RECON,ioos:station:SCCF:12:1,2009-09-05T07:00:00Z,26.4966,-82.1479,2.54,4.49,1111122 
SCCF RECON,ioos:station:SCCF:12:1,2009-09-05T08:00:00Z,26.4966,-82.1479,2.477,4.1,1111122 
SCCF RECON,ioos:station:SCCF:12:1,2009-09-05T09:00:00Z,26.4966,-82.1479,2.42,4.26,1111122 
SCCF RECON,ioos:station:SCCF:12:1,2009-09-05T10:00:00Z,26.4966,-82.1479,2.32,4.45,1111122 
SCCF RECON,ioos:station:SCCF:12:1,2009-09-05T11:00:00Z,26.4966,-82.1479,2.199,4.43,1111122 
SCCF RECON,ioos:station:SCCF:12:1,2009-09-05T12:00:00Z,26.4966,-82.1479,2.121,4.46,1111122 
SCCF RECON,ioos:station:SCCF:12:1,2009-09-05T13:00:00Z,26.4966,-82.1479,2.122,4.36,1111122 
SCCF RECON,ioos:station:SCCF:12:1,2009-09-05T14:00:00Z,26.4966,-82.1479,2.22,4.12,1111122 
SCCF RECON,ioos:station:SCCF:12:1,2009-09-05T15:00:00Z,26.4966,-82.1479,2.396,4.18,1111122 
SCCF RECON,ioos:station:SCCF:12:1,2009-09-05T16:00:00Z,26.4966,-82.1479,2.543,3.83,1111122 
SCCF RECON,ioos:station:SCCF:12:1,2009-09-05T17:00:00Z,26.4966,-82.1479,2.631,4.29,1111122 
SCCF RECON,ioos:station:SCCF:12:1,2009-09-05T18:00:00Z,26.4966,-82.1479,2.66,4.02,1111122 
SCCF RECON,ioos:station:SCCF:12:1,2009-09-05T19:00:00Z,26.4966,-82.1479,2.65,4.43,1111122 
SCCF RECON,ioos:station:SCCF:12:1,2009-09-05T20:00:00Z,26.4966,-82.1479,2.578,4.6,1111122 
SCCF RECON,ioos:station:SCCF:12:1,2009-09-05T21:00:00Z,26.4966,-82.1479,2.493,5.0,1111122 
SCCF RECON,ioos:station:SCCF:12:1,2009-09-05T22:00:00Z,26.4966,-82.1479,2.34,4.82,1111122 
SCCF RECON,ioos:station:SCCF:12:1,2009-09-05T23:00:00Z,26.4966,-82.1479,2.22,4.61,1111122 
SCCF RECON,ioos:station:SCCF:12:1,2009-09-06T00:00:00Z,26.4966,-82.1479,2.12,4.61,1111122 
SCCF RECON,ioos:station:SCCF:12:1,2009-09-06T01:00:00Z,26.4966,-82.1479,2.08,4.58,1111122 
SCCF RECON,ioos:station:SCCF:12:1,2009-09-06T02:00:00Z,26.4966,-82.1479,2.13,4.3,1111122 
SCCF RECON,ioos:station:SCCF:12:1,2009-09-06T03:00:00Z,26.4966,-82.1479,2.28,4.07,1111122 
SCCF RECON,ioos:station:SCCF:12:1,2009-09-06T04:00:00Z,26.4966,-82.1479,2.46,3.75,1111122 
SCCF RECON,ioos:station:SCCF:12:1,2009-09-06T05:00:00Z,26.4966,-82.1479,2.59,3.5,1111122 
SCCF RECON,ioos:station:SCCF:12:1,2009-09-06T06:00:00Z,26.4966,-82.1479,2.63,4.11,1111122 
SCCF RECON,ioos:station:SCCF:12:1,2009-09-06T07:00:00Z,26.4966,-82.1479,2.61,4.22,1111122 
SCCF RECON,ioos:station:SCCF:12:1,2009-09-06T08:00:00Z,26.4966,-82.1479,2.53,4.27,1111122 
SCCF RECON,ioos:station:SCCF:12:1,2009-09-06T09:00:00Z,26.4966,-82.1479,2.43,4.17,1111122 
SCCF RECON,ioos:station:SCCF:12:1,2009-09-06T10:00:00Z,26.4966,-82.1479,2.31,4.3,1111122 
SCCF RECON,ioos:station:SCCF:12:1,2009-09-06T11:00:00Z,26.4966,-82.1479,2.19,4.05,1111122 
SCCF RECON,ioos:station:SCCF:12:1,2009-09-06T12:00:00Z,26.4966,-82.1479,2.111,4.05,1111122 
SCCF RECON,ioos:station:SCCF:12:1,2009-09-06T13:00:00Z,26.4966,-82.1479,2.075,4.17,1111122 
SCCF RECON,ioos:station:SCCF:12:1,2009-09-06T14:00:00Z,26.4966,-82.1479,2.112,4.09,1111122 
SCCF RECON,ioos:station:SCCF:12:1,2009-09-06T15:00:00Z,26.4966,-82.1479,2.238,3.75,1111122 
SCCF RECON,ioos:station:SCCF:12:1,2009-09-06T16:00:00Z,26.4966,-82.1479,2.404,3.74,1111122 
SCCF RECON,ioos:station:SCCF:12:1,2009-09-06T17:00:00Z,26.4966,-82.1479,2.537,3.64,1111122 
SCCF RECON,ioos:station:SCCF:12:1,2009-09-06T18:00:00Z,26.4966,-82.1479,2.61,3.77,1111122 
SCCF RECON,ioos:station:SCCF:12:1,2009-09-06T19:00:00Z,26.4966,-82.1479,2.638,4.43,1111122 
SCCF RECON,ioos:station:SCCF:12:1,2009-09-06T20:00:00Z,26.4966,-82.1479,2.59,5.09,1111122 
SCCF RECON,ioos:station:SCCF:12:1,2009-09-06T21:00:00Z,26.4966,-82.1479,2.495,4.53,1111122 
SCCF RECON,ioos:station:SCCF:12:1,2009-09-06T22:00:00Z,26.4966,-82.1479,2.388,4.92,1111122 
SCCF RECON,ioos:station:SCCF:12:1,2009-09-06T23:00:00Z,26.4966,-82.1479,2.271,5.31,1111122 
SCCF RECON,ioos:station:SCCF:12:1,2009-09-07T00:00:00Z,26.4966,-82.1479,2.203,5.66,1111122 
SCCF RECON,ioos:station:SCCF:12:1,2009-09-07T01:00:00Z,26.4966,-82.1479,2.17,5.38,1111122 
SCCF RECON,ioos:station:SCCF:12:1,2009-09-07T02:00:00Z,26.4966,-82.1479,2.196,3.8,1111122 
SCCF RECON,ioos:station:SCCF:12:1,2009-09-07T03:00:00Z,26.4966,-82.1479,2.3,4.79,1111122 
SCCF RECON,ioos:station:SCCF:12:1,2009-09-07T04:00:00Z,26.4966,-82.1479,2.41,4.89,1111122 
SCCF RECON,ioos:station:SCCF:12:1,2009-09-07T05:00:00Z,26.4966,-82.1479,2.53,4.58,1111122 
SCCF RECON,ioos:station:SCCF:12:1,2009-09-07T06:00:00Z,26.4966,-82.1479,2.6,4.4,1111122 
SCCF RECON,ioos:station:SCCF:12:1,2009-09-07T07:00:00Z,26.4966,-82.1479,2.61,4.49,1111122 
SCCF RECON,ioos:station:SCCF:12:1,2009-09-07T08:00:00Z,26.4966,-82.1479,2.54,4.8,1111122 
SCCF RECON,ioos:station:SCCF:12:1,2009-09-07T09:00:00Z,26.4966,-82.1479,2.45,4.69,1111122 
SCCF RECON,ioos:station:SCCF:12:1,2009-09-07T10:00:00Z,26.4966,-82.1479,2.33,4.31,1111122 
SCCF RECON,ioos:station:SCCF:12:1,2009-09-07T11:00:00Z,26.4966,-82.1479,2.206,4.68,1111122 
SCCF RECON,ioos:station:SCCF:12:1,2009-09-07T12:00:00Z,26.4966,-82.1479,2.1,4.26,1111122 
SCCF RECON,ioos:station:SCCF:12:1,2009-09-07T13:00:00Z,26.4966,-82.1479,2.02,4.39,1111122 
SCCF RECON,ioos:station:SCCF:12:1,2009-09-07T14:00:00Z,26.4966,-82.1479,1.983,4.63,1111122 
SCCF RECON,ioos:station:SCCF:12:1,2009-09-07T15:00:00Z,26.4966,-82.1479,2.058,4.33,1111122 
SCCF RECON,ioos:station:SCCF:12:1,2009-09-07T16:00:00Z,26.4966,-82.1479,2.223,4.45,1111122 
SCCF RECON,ioos:station:SCCF:12:1,2009-09-07T17:00:00Z,26.4966,-82.1479,2.371,4.76,1111122 
SCCF RECON,ioos:station:SCCF:12:1,2009-09-07T18:00:00Z,26.4966,-82.1479,2.485,4.61,1111122 
SCCF RECON,ioos:station:SCCF:12:1,2009-09-07T19:00:00Z,26.4966,-82.1479,2.547,3.19,1111122 
SCCF RECON,ioos:station:SCCF:12:1,2009-09-07T20:00:00Z,26.4966,-82.1479,2.533,5.07,1111122 
SCCF RECON,ioos:station:SCCF:12:1,2009-09-07T21:00:00Z,26.4966,-82.1479,2.47,5.36,1111122 
SCCF RECON,ioos:station:SCCF:12:1,2009-09-07T22:00:00Z,26.4966,-82.1479,2.38,5.58,1111122 
SCCF RECON,ioos:station:SCCF:12:1,2009-09-07T23:00:00Z,26.4966,-82.1479,2.31,5.9,1111122 
SCCF RECON,ioos:station:SCCF:12:1,2009-09-08T00:00:00Z,26.4966,-82.1479,2.249,5.66,1111122 
SCCF RECON,ioos:station:SCCF:12:1,2009-09-08T01:00:00Z,26.4966,-82.1479,2.219,5.95,1111122 
SCCF RECON,ioos:station:SCCF:12:1,2009-09-08T02:00:00Z,26.4966,-82.1479,2.233,6.1,1111122 
SCCF RECON,ioos:station:SCCF:12:1,2009-09-08T03:00:00Z,26.4966,-82.1479,2.303,4.51,1111122 
SCCF RECON,ioos:station:SCCF:12:1,2009-09-08T04:00:00Z,26.4966,-82.1479,2.437,5.41,1111122 
SCCF RECON,ioos:station:SCCF:12:1,2009-09-08T05:00:00Z,26.4966,-82.1479,2.54,4.98,1111122 
SCCF RECON,ioos:station:SCCF:12:1,2009-09-08T06:00:00Z,26.4966,-82.1479,2.622,4.88,1111122 
SCCF RECON,ioos:station:SCCF:12:1,2009-09-08T07:00:00Z,26.4966,-82.1479,2.65,4.91,1111122 
SCCF RECON,ioos:station:SCCF:12:1,2009-09-08T08:00:00Z,26.4966,-82.1479,2.62,5.07,1111122 
SCCF RECON,ioos:station:SCCF:12:1,2009-09-08T09:00:00Z,26.4966,-82.1479,2.542,4.94,1111122 
SCCF RECON,ioos:station:SCCF:12:1,2009-09-08T10:00:00Z,26.4966,-82.1479,2.46,5.07,1111122 
SCCF RECON,ioos:station:SCCF:12:1,2009-09-08T11:00:00Z,26.4966,-82.1479,2.35,5.15,1111122 
SCCF RECON,ioos:station:SCCF:12:1,2009-09-08T12:00:00Z,26.4966,-82.1479,2.23,5.06,1111122 
SCCF RECON,ioos:station:SCCF:12:1,2009-09-08T13:00:00Z,26.4966,-82.1479,2.12,4.92,1111122 
SCCF RECON,ioos:station:SCCF:12:1,2009-09-08T14:00:00Z,26.4966,-82.1479,2.035,4.99,1111122 
SCCF RECON,ioos:station:SCCF:12:1,2009-09-08T15:00:00Z,26.4966,-82.1479,2.01,4.72,1111122 
SCCF RECON,ioos:station:SCCF:12:1,2009-09-08T16:00:00Z,26.4966,-82.1479,2.1,4.77,1111122 
SCCF RECON,ioos:station:SCCF:12:1,2009-09-08T17:00:00Z,26.4966,-82.1479,2.267,5.12,1111122 
SCCF RECON,ioos:station:SCCF:12:1,2009-09-08T18:00:00Z,26.4966,-82.1479,2.4,5.91,1111122 
SCCF RECON,ioos:station:SCCF:12:1,2009-09-08T19:00:00Z,26.4966,-82.1479,2.47,5.32,1111122 
SCCF RECON,ioos:station:SCCF:12:1,2009-09-08T20:00:00Z,26.4966,-82.1479,2.5,6.23,1111122 
SCCF RECON,ioos:station:SCCF:12:1,2009-09-08T21:00:00Z,26.4966,-82.1479,2.484,7.39,1111122 
SCCF RECON,ioos:station:SCCF:12:1,2009-09-08T22:00:00Z,26.4966,-82.1479,2.442,6.64,1111122 
SCCF RECON,ioos:station:SCCF:12:1,2009-09-08T23:00:00Z,26.4966,-82.1479,2.377,5.81,1111122 
SCCF RECON,ioos:station:SCCF:12:1,2009-09-09T00:00:00Z,26.4966,-82.1479,2.331,5.68,1111122 
SCCF RECON,ioos:station:SCCF:12:1,2009-09-09T01:00:00Z,26.4966,-82.1479,2.288,5.99,1111122 
SCCF RECON,ioos:station:SCCF:12:1,2009-09-09T02:00:00Z,26.4966,-82.1479,2.296,6.6,1111122 
SCCF RECON,ioos:station:SCCF:12:1,2009-09-09T03:00:00Z,26.4966,-82.1479,2.343,6.43,1111122 
SCCF RECON,ioos:station:SCCF:12:1,2009-09-09T04:00:00Z,26.4966,-82.1479,2.4,5.44,1111122 
SCCF RECON,ioos:station:SCCF:12:1,2009-09-09T05:00:00Z,26.4966,-82.1479,2.48,6.1,1111122 
SCCF RECON,ioos:station:SCCF:12:1,2009-09-09T06:00:00Z,26.4966,-82.1479,2.57,5.46,1111122 
SCCF RECON,ioos:station:SCCF:12:1,2009-09-09T07:00:00Z,26.4966,-82.1479,2.62,4.98,1111122 
SCCF RECON,ioos:station:SCCF:12:1,2009-09-09T08:00:00Z,26.4966,-82.1479,2.66,4.75,1111122 
SCCF RECON,ioos:station:SCCF:12:1,2009-09-09T09:00:00Z,26.4966,-82.1479,2.63,5.44,1111122 
SCCF RECON,ioos:station:SCCF:12:1,2009-09-09T10:00:00Z,26.4966,-82.1479,2.555,5.47,1111122 
SCCF RECON,ioos:station:SCCF:12:1,2009-09-09T11:00:00Z,26.4966,-82.1479,2.45,4.97,1111122 
SCCF RECON,ioos:station:SCCF:12:1,2009-09-09T12:00:00Z,26.4966,-82.1479,2.325,4.96,1111122 
SCCF RECON,ioos:station:SCCF:12:1,2009-09-09T13:00:00Z,26.4966,-82.1479,2.208,4.65,1111122 
SCCF RECON,ioos:station:SCCF:12:1,2009-09-09T14:00:00Z,26.4966,-82.1479,2.099,5.07,1111122 
SCCF RECON,ioos:station:SCCF:12:1,2009-09-09T15:00:00Z,26.4966,-82.1479,2.019,5.38,1111122 
SCCF RECON,ioos:station:SCCF:12:1,2009-09-09T16:00:00Z,26.4966,-82.1479,2.0,4.61,1111122 
SCCF RECON,ioos:station:SCCF:12:1,2009-09-09T17:00:00Z,26.4966,-82.1479,2.1,5.51,1111122 
SCCF RECON,ioos:station:SCCF:12:1,2009-09-09T18:00:00Z,26.4966,-82.1479,2.249,5.95,1111122 
SCCF RECON,ioos:station:SCCF:12:1,2009-09-09T19:00:00Z,26.4966,-82.1479,2.365,5.95,1111122 
SCCF RECON,ioos:station:SCCF:12:1,2009-09-09T20:00:00Z,26.4966,-82.1479,2.43,5.76,1111122 
SCCF RECON,ioos:station:SCCF:12:1,2009-09-09T21:00:00Z,26.4966,-82.1479,2.48,6.92,1111122 
SCCF RECON,ioos:station:SCCF:12:1,2009-09-09T22:00:00Z,26.4966,-82.1479,2.49,7.06,1111122 
SCCF RECON,ioos:station:SCCF:12:1,2009-09-09T23:00:00Z,26.4966,-82.1479,2.444,6.03,1111122 
SCCF RECON,ioos:station:SCCF:12:1,2009-09-10T00:00:00Z,26.4966,-82.1479,2.402,6.06,1111122 
SCCF RECON,ioos:station:SCCF:12:1,2009-09-10T01:00:00Z,26.4966,-82.1479,2.368,5.89,1111122 
SCCF RECON,ioos:station:SCCF:12:1,2009-09-10T02:00:00Z,26.4966,-82.1479,2.361,5.61,1111122 
SCCF RECON,ioos:station:SCCF:12:1,2009-09-10T03:00:00Z,26.4966,-82.1479,2.363,5.52,1111122 
SCCF RECON,ioos:station:SCCF:12:1,2009-09-10T04:00:00Z,26.4966,-82.1479,2.397,5.38,1111122 
SCCF RECON,ioos:station:SCCF:12:1,2009-09-10T05:00:00Z,26.4966,-82.1479,2.478,5.49,1111122 
SCCF RECON,ioos:station:SCCF:12:1,2009-09-10T06:00:00Z,26.4966,-82.1479,2.582,5.03,1111122 
SCCF RECON,ioos:station:SCCF:12:1,2009-09-10T07:00:00Z,26.4966,-82.1479,2.647,4.68,1111122 
SCCF RECON,ioos:station:SCCF:12:1,2009-09-10T08:00:00Z,26.4966,-82.1479,2.651,5.03,1111122 
SCCF RECON,ioos:station:SCCF:12:1,2009-09-10T09:00:00Z,26.4966,-82.1479,2.68,4.56,1111122 
SCCF RECON,ioos:station:SCCF:12:1,2009-09-10T10:00:00Z,26.4966,-82.1479,2.671,4.97,1111122 
SCCF RECON,ioos:station:SCCF:12:1,2009-09-10T11:00:00Z,26.4966,-82.1479,2.63,5.34,1111122 
SCCF RECON,ioos:station:SCCF:12:1,2009-09-10T12:00:00Z,26.4966,-82.1479,2.53,5.06,1111122 
SCCF RECON,ioos:station:SCCF:12:1,2009-09-10T13:00:00Z,26.4966,-82.1479,2.392,4.86,1111122 
SCCF RECON,ioos:station:SCCF:12:1,2009-09-10T14:00:00Z,26.4966,-82.1479,2.246,4.87,1111122 
SCCF RECON,ioos:station:SCCF:12:1,2009-09-10T15:00:00Z,26.4966,-82.1479,2.142,5.12,1111122 
SCCF RECON,ioos:station:SCCF:12:1,2009-09-10T16:00:00Z,26.4966,-82.1479,2.069,5.53,1111122 
SCCF RECON,ioos:station:SCCF:12:1,2009-09-10T17:00:00Z,26.4966,-82.1479,2.06,5.79,1111122 
SCCF RECON,ioos:station:SCCF:12:1,2009-09-10T18:00:00Z,26.4966,-82.1479,2.169,5.28,1111122 
SCCF RECON,ioos:station:SCCF:12:1,2009-09-10T19:00:00Z,26.4966,-82.1479,2.297,5.78,1111122 
SCCF RECON,ioos:station:SCCF:12:1,2009-09-10T20:00:00Z,26.4966,-82.1479,2.39,5.3,1111122 
SCCF RECON,ioos:station:SCCF:12:1,2009-09-10T21:00:00Z,26.4966,-82.1479,2.452,6.29,1111122 
SCCF RECON,ioos:station:SCCF:12:1,2009-09-10T22:00:00Z,26.4966,-82.1479,2.48,6.71,1111122 
SCCF RECON,ioos:station:SCCF:12:1,2009-09-10T23:00:00Z,26.4966,-82.1479,2.47,5.88,1111122 
SCCF RECON,ioos:station:SCCF:12:1,2009-09-11T00:00:00Z,26.4966,-82.1479,2.445,5.88,1111122 
SCCF RECON,ioos:station:SCCF:12:1,2009-09-11T01:00:00Z,26.4966,-82.1479,2.46,5.32,1111122 
SCCF RECON,ioos:station:SCCF:12:1,2009-09-11T02:00:00Z,26.4966,-82.1479,2.459,5.22,1111122 
SCCF RECON,ioos:station:SCCF:12:1,2009-09-11T03:00:00Z,26.4966,-82.1479,2.48,5.57,1111122 
SCCF RECON,ioos:station:SCCF:12:1,2009-09-11T04:00:00Z,26.4966,-82.1479,2.46,5.33,1111122 
SCCF RECON,ioos:station:SCCF:12:1,2009-09-11T05:00:00Z,26.4966,-82.1479,2.491,4.89,1111122 
SCCF RECON,ioos:station:SCCF:12:1,2009-09-11T06:00:00Z,26.4966,-82.1479,2.58,5.09,1111122 
SCCF RECON,ioos:station:SCCF:12:1,2009-09-11T07:00:00Z,26.4966,-82.1479,2.66,4.99,1111122 
SCCF RECON,ioos:station:SCCF:12:1,2009-09-11T08:00:00Z,26.4966,-82.1479,2.722,4.47,1111122 
SCCF RECON,ioos:station:SCCF:12:1,2009-09-11T09:00:00Z,26.4966,-82.1479,2.74,4.73,1111122 
SCCF RECON,ioos:station:SCCF:12:1,2009-09-11T10:00:00Z,26.4966,-82.1479,2.71,5.05,1111122 
SCCF RECON,ioos:station:SCCF:12:1,2009-09-11T11:00:00Z,26.4966,-82.1479,2.652,5.45,1111122 
SCCF RECON,ioos:station:SCCF:12:1,2009-09-11T12:00:00Z,26.4966,-82.1479,2.613,5.32,1111122 
SCCF RECON,ioos:station:SCCF:12:1,2009-09-11T13:00:00Z,26.4966,-82.1479,2.522,4.89,1111122 
SCCF RECON,ioos:station:SCCF:12:1,2009-09-11T14:00:00Z,26.4966,-82.1479,2.402,5.27,1111122 
SCCF RECON,ioos:station:SCCF:12:1,2009-09-11T15:00:00Z,26.4966,-82.1479,2.276,5.15,1111122 
SCCF RECON,ioos:station:SCCF:12:1,2009-09-11T16:00:00Z,26.4966,-82.1479,2.162,5.02,1111122 
SCCF RECON,ioos:station:SCCF:12:1,2009-09-11T17:00:00Z,26.4966,-82.1479,2.072,5.06,1111122 
SCCF RECON,ioos:station:SCCF:12:1,2009-09-11T18:00:00Z,26.4966,-82.1479,2.038,5.25,1111122 
SCCF RECON,ioos:station:SCCF:12:1,2009-09-11T19:00:00Z,26.4966,-82.1479,2.123,5.23,1111122 
SCCF RECON,ioos:station:SCCF:12:1,2009-09-11T20:00:00Z,26.4966,-82.1479,2.25,5.26,1111122 